Hourly Data Report for October 09, 2017

All times are specified in Local Standard Time (LST). Add 1 hour to adjust for Daylight Saving Time where and when it is observed.

POWELL RIVER
BRITISH COLUMBIA

49°50'04.400" N
124°29'48.500" W
125.00 m
1046392
71720
VOP

Download Data

Hourly Data (October 2017)
Hourly Data Report for October 9, 2017
Temp Definition
°C
Dew Point Temp Definition
°C
Rel Hum Definition
%
Wind Dir Definition
10's deg

Wind Spd Definition
km/h
Visibility Definition
km
Stn Press Definition
kPa
Hmdx Definition


Wind Chill Definition


Weather Definition


TIME
00:00 5.1 4.5 96 LegendMM LegendMM   101.21     LegendNANA
01:00 5.9 5.4 96 LegendMM LegendMM   101.20     LegendNANA
02:00 5.4 4.9 97 LegendMM LegendMM   101.20     LegendNANA
03:00 4.2 3.8 97 LegendMM LegendMM   101.15     LegendNANA
04:00 4.8 4.5 98 LegendMM LegendMM   101.13     LegendNANA
05:00 3.8 3.4 98 LegendMM LegendMM   101.11     LegendNANA
06:00 5.0 4.7 98 LegendMM LegendMM   101.08     LegendNANA
07:00 5.5 5.2 98 LegendMM LegendMM   101.04     LegendNANA
08:00 7.4 7.0 98 LegendMM LegendMM   101.01     LegendNANA
09:00 9.8 8.9 94 LegendMM LegendMM   100.99     LegendNANA
10:00 10.6 8.1 84 LegendMM LegendMM   100.95     LegendNANA
11:00 11.7 7.4 75 LegendMM LegendMM   100.90     LegendNANA
12:00 13.3 6.9 65 LegendMM LegendMM   100.83     LegendNANA
13:00 12.9 6.7 66 LegendMM LegendMM   100.73     LegendNANA
14:00 12.6 7.1 69 LegendMM LegendMM   100.63     LegendNANA
15:00 12.0 7.4 73 LegendMM LegendMM   100.56     LegendNANA
16:00 11.4 7.9 79 LegendMM LegendMM   100.48     LegendNANA
17:00 10.5 8.0 84 LegendMM LegendMM   100.39     LegendNANA
18:00 9.4 7.8 90 LegendMM LegendMM   100.32     LegendNANA
19:00 9.4 8.0 91 LegendMM LegendMM   100.25     LegendNANA
20:00 8.6 7.5 93 LegendMM LegendMM   100.20     LegendNANA
21:00 6.8 6.0 95 LegendMM LegendMM   100.10     LegendNANA
22:00 6.5 6.0 96 LegendMM LegendMM   100.01     LegendNANA
23:00 6.8 6.1 96 LegendMM LegendMM   99.94     LegendNANA

Notes on Data Quality.

Legend

  • E = Estimated
  • M = Missing
  • NA = Not Available
  • ‡ = Partner data that is not subject to review by the National Climate Archives
Date modified: